Probability
0 0 0 0 0 0 0 0 0 3 3 10 6 13 26 29 29 29 45 42 42 42 39 42 32 39 35 39 39 42 45 45 45 45 42 39 35 39 32 29 29 32 35 32
0 0 0 0 0 3 0 0 0 3 3 10 13 16 26 26 29 32 39 39 45 39 42 39 29 35 39 39 39 39 39 39 39 39 39 35 35 32 29 29 29 32 29 29
0 0 0 0 0 3 3 3 3 3 3 10 13 23 23 23 23 29 29 35 39 39 42 42 35 29 32 35 39 35 35 29 32 35 35 39 32 29 29 29 26 26 26 29
0 0 0 0 0 0 3 3 3 6 10 10 13 23 19 23 23 26 26 29 39 39 42 39 32 29 29 29 35 39 35 32 32 29 29 29 29 23 23 26 26 26 26 26
0 0 0 0 0 0 0 3 6 10 10 10 13 23 23 23 23 26 29 35 35 39 39 39 29 29 29 32 32 32 35 35 35 35 32 29 23 26 19 26 26 26 23 23
0 0 0 0 0 0 0 0 3 6 10 16 16 13 13 16 26 32 35 39 32 23 26 26 26 35 35 26 26 29 32 35 32 32 32 23 19 23 19 19 19 23 19 19
0 0 0 0 0 3 0 3 3 3 16 19 16 16 23 26 39 42 39 35 23 23 26 23 29 26 26 23 23 26 26 29 26 26 26 29 23 19 16 16 16 19 19 23
0 0 0 0 3 3 10 19 10 6 13 13 23 16 29 29 35 39 39 23 23 26 19 23 23 23 26 26 19 19 19 23 23 23 16 13 16 16 16 16 16 16 16 16
0 0 3 0 6 10 13 13 10 10 16 19 19 23 32 29 29 39 29 23 23 23 23 26 23 16 19 23 13 13 19 19 16 16 10 13 13 10 10 10 10 10 13 10
3 3 3 0 3 6 10 13 16 19 19 23 26 29 32 29 26 29 26 26 23 19 19 19 23 16 16 16 16 13 19 16 16 16 10 10 13 6 3 0 3 3 6 13
6 3 6 3 10 10 13 16 13 16 16 19 23 23 23 26 26 26 23 19 19 19 19 19 16 16 13 13 16 16 16 16 10 10 10 10 6 6 3 0 0 3 0 3
6 6 6 6 3 3 6 10 10 16 16 16 16 19 19 26 29 32 23 23 19 19 19 16 16 16 10 13 13 10 10 10 10 6 6 6 6 0 0 0 0 0 0 0
3 6 6 6 3 3 6 6 10 13 16 16 16 13 16 19 26 19 13 23 23 16 16 16 16 16 13 10 10 10 10 10 10 6 6 6 6 0 0 0 0 0 0 0
3 3 3 6 6 6 3 6 10 13 13 13 10 10 16 19 16 16 19 19 16 10 13 13 13 10 16 6 6 10 10 10 6 10 6 6 3 3 3 3 3 0 0 0
6 3 3 3 6 6 10 10 13 13 10 10 13 16 19 16 10 16 16 10 10 13 10 6 10 10 10 10 13 10 13 16 16 16 13 10 13 10 6 6 0 0 3 0
0 0 6 6 10 6 6 10 13 16 13 16 16 16 13 10 10 16 16 10 10 10 3 3 13 10 10 13 13 13 13 10 13 16 10 10 13 6 3 3 3 3 3 0
6 10 6 6 3 3 6 6 13 13 13 13 13 13 13 6 10 10 10 10 13 10 3 3 6 13 13 13 6 10 10 6 3 6 6 6 3 3 3 3 3 3 3 3
6 6 10 6 6 3 3 3 3 6 10 6 6 13 10 10 6 10 10 10 6 3 6 6 10 10 10 6 6 6 0 0 0 3 3 0 3 3 3 3 3 3 3 3
10 6 6 3 3 3 3 3 3 6 6 10 6 10 16 13 13 13 13 10 6 6 6 6 0 3 6 3 3 0 0 0 0 0 0 0 0 0 3 3 3 3 3 3
0 0 3 3 3 3 3 3 3 6 6 6 6 6 10 13 13 16 10 10 6 6 3 3 6 6 6 3 0 0 0 0 0 0 0 0 0 0 0 0 0 3 3 3
0 0 3 0 3 3 3 6 6 6 6 6 6 6 6 3 6 6 6 6 6 6 3 0 6 6 6 3 0 0 0 0 0 0 0 0 0 0 0 0 0 0 0 3
0 0 0 0 0 3 6 6 6 6 6 6 3 0 3 3 0 0 6 3 3 0 3 6 6 3 3 3 3 3 3 0 0 0 0 0 0 0 0 0 0 0 0 0
3 0 0 0 3 6 6 6 6 6 3 3 0 3 3 3 3 3 6 0 0 0 0 0 0 0 0 0 3 6 6 3 0 0 0 0 0 0 0 0 0 0 0 0
6 3 0 0 3 6 6 6 6 3 3 0 0 0 0 0 3 3 6 0 0 0 0 0 0 0 0 0 3 3 3 3 3 3 3 0 0 0 0 0 0 0 0 0
3 3 0 0 0 6 0 0 0 0 0 0 0 0 0 0 3 3 0 0 0 0 0 0 0 0 0 0 0 0 0 3 3 3 3 3 3 3 0 0 0 0 0 0
0 3 0 0 0 0 0 0 0 0 0 0 0 0 0 0 3 0 0 3 0 0 0 0 0 0 0 0 0 0 0 0 0 0 0 3 3 3 3 3 0 0 0 0
0 3 3 0 0 0 0 0 0 0 0 0 0 0 3 0 0 0 0 3 0 0 0 0 0 0 0 0 0 0 0 0 0 0 0 0 0 0 3 3 3 3 3 0
Height
5876 5877 5878 5878 5879 5880 5881 5882 5883 5883 5883 5882 5880 5880 5879 5879 5878 5877 5876 5875 5873 5872 5870 5869 5868 5866 5864 5863 5861 5859 5857 5855 5853 5851 5848 5846 5844 5841 5839 5836 5834 5831 5828 5825
5870 5871 5871 5872 5873 5873 5874 5874 5875 5875 5875 5874 5874 5873 5873 5872 5871 5871 5870 5869 5867 5866 5864 5863 5861 5860 5858 5856 5854 5852 5851 5848 5847 5844 5842 5839 5837 5834 5832 5829 5826 5823 5820 5817
5864 5865 5865 5866 5867 5867 5867 5867 5868 5868 5868 5867 5867 5866 5866 5865 5864 5864 5863 5862 5861 5860 5859 5857 5855 5853 5852 5850 5848 5845 5843 5841 5839 5837 5834 5832 5829 5827 5824 5821 5818 5814 5812 5808
5858 5858 5859 5862 5860 5861 5861 5860 5861 5861 5860 5860 5860 5859 5858 5858 5857 5857 5856 5855 5854 5853 5852 5850 5848 5847 5845 5843 5841 5839 5836 5834 5832 5829 5826 5824 5821 5818 5815 5812 5809 5806 5803 5800
5851 5852 5852 5853 5853 5854 5854 5854 5854 5854 5853 5853 5853 5852 5851 5851 5850 5849 5849 5848 5847 5846 5845 5843 5841 5839 5838 5835 5834 5831 5829 5826 5823 5820 5818 5815 5812 5810 5807 5803 5800 5797 5794 5791
5843 5845 5846 5847 5846 5846 5847 5846 5847 5846 5846 5846 5845 5845 5844 5843 5842 5842 5841 5840 5839 5838 5837 5835 5834 5832 5830 5828 5825 5823 5820 5818 5815 5812 5809 5807 5804 5801 5797 5794 5791 5787 5785 5782
5835 5837 5838 5838 5838 5839 5841 5841 5839 5839 5838 5838 5837 5837 5837 5835 5835 5834 5833 5832 5831 5830 5829 5827 5825 5824 5822 5819 5817 5814 5811 5809 5806 5803 5801 5798 5794 5791 5788 5784 5781 5778 5775 5772
5828 5829 5832 5830 5831 5832 5832 5832 5831 5830 5830 5830 5829 5829 5828 5827 5827 5826 5825 5824 5823 5822 5820 5818 5816 5814 5812 5810 5808 5805 5803 5800 5797 5794 5791 5788 5785 5781 5778 5775 5771 5768 5765 5762
5820 5822 5821 5821 5822 5823 5823 5823 5823 5822 5822 5821 5821 5820 5819 5819 5818 5817 5816 5815 5814 5813 5811 5809 5807 5805 5803 5801 5798 5795 5793 5790 5787 5784 5781 5778 5775 5772 5768 5765 5762 5759 5755 5752
5810 5811 5812 5813 5813 5814 5814 5814 5814 5814 5813 5813 5812 5811 5811 5810 5809 5808 5808 5806 5805 5804 5802 5800 5798 5796 5793 5791 5788 5786 5783 5780 5777 5774 5771 5768 5765 5762 5759 5755 5752 5749 5745 5742
5801 5802 5803 5804 5804 5805 5805 5806 5806 5805 5805 5804 5803 5803 5802 5801 5800 5800 5799 5797 5796 5794 5793 5790 5788 5786 5783 5781 5778 5776 5773 5770 5767 5765 5762 5759 5756 5752 5749 5746 5742 5739 5735 5732
5792 5793 5794 5795 5796 5796 5796 5796 5796 5796 5796 5795 5795 5794 5793 5792 5791 5791 5789 5788 5786 5785 5783 5781 5778 5776 5773 5771 5768 5765 5763 5760 5757 5755 5752 5749 5746 5743 5739 5736 5733 5729 5725 5722
5783 5784 5785 5786 5786 5787 5787 5787 5787 5787 5787 5787 5786 5785 5784 5783 5782 5781 5780 5779 5777 5775 5773 5771 5769 5767 5764 5761 5758 5756 5753 5750 5748 5745 5743 5740 5737 5733 5730 5727 5723 5719 5716 5712
5774 5775 5776 5777 5778 5778 5778 5779 5779 5779 5778 5777 5777 5776 5775 5774 5773 5772 5770 5769 5767 5766 5764 5762 5760 5758 5755 5752 5749 5747 5744 5741 5739 5736 5733 5730 5727 5724 5721 5717 5714 5710 5706 5703
5766 5767 5768 5768 5769 5769 5770 5770 5770 5770 5769 5768 5768 5767 5766 5765 5764 5763 5761 5760 5758 5757 5755 5753 5751 5749 5746 5743 5741 5738 5735 5732 5730 5727 5725 5722 5719 5715 5712 5708 5704 5701 5697 5694
5757 5758 5759 5759 5760 5760 5761 5761 5761 5761 5760 5759 5759 5758 5757 5756 5755 5754 5753 5751 5750 5748 5746 5744 5742 5740 5737 5735 5732 5730 5727 5724 5721 5719 5716 5713 5710 5707 5703 5700 5696 5693 5690 5686
5749 5749 5750 5751 5751 5752 5752 5752 5752 5751 5751 5750 5749 5749 5748 5747 5746 5745 5744 5742 5740 5739 5737 5735 5733 5731 5729 5727 5724 5722 5719 5716 5713 5711 5708 5705 5702 5699 5695 5692 5689 5685 5682 5679
5740 5741 5742 5742 5743 5743 5743 5743 5742 5741 5741 5740 5740 5739 5739 5738 5737 5736 5735 5733 5732 5730 5728 5727 5725 5723 5721 5719 5716 5714 5711 5709 5706 5703 5700 5697 5694 5691 5687 5684 5681 5678 5675 5672
5731 5732 5733 5734 5734 5734 5734 5734 5733 5733 5732 5731 5731 5730 5729 5728 5728 5727 5726 5725 5723 5721 5720 5718 5716 5714 5712 5710 5708 5706 5704 5701 5698 5696 5692 5689 5686 5683 5680 5677 5674 5671 5668 5665
5723 5724 5725 5726 5726 5726 5726 5726 5725 5724 5724 5723 5722 5722 5720 5719 5719 5718 5717 5716 5715 5713 5711 5710 5708 5707 5705 5703 5701 5699 5697 5694 5692 5689 5686 5683 5680 5677 5673 5671 5668 5664 5661 5658
5716 5716 5717 5717 5718 5718 5718 5718 5717 5717 5716 5715 5714 5714 5713 5711 5710 5710 5709 5708 5707 5705 5703 5702 5701 5699 5697 5696 5694 5692 5690 5687 5685 5682 5679 5676 5673 5670 5667 5664 5661 5658 5656 5653
5708 5708 5709 5709 5709 5710 5710 5710 5709 5709 5708 5708 5707 5706 5705 5704 5703 5702 5701 5701 5699 5698 5696 5695 5693 5692 5690 5688 5687 5685 5683 5680 5678 5675 5673 5670 5667 5664 5661 5658 5656 5653 5650 5647
5700 5701 5701 5702 5702 5702 5702 5702 5701 5701 5700 5700 5699 5699 5698 5697 5696 5695 5694 5693 5692 5691 5689 5688 5686 5685 5683 5682 5680 5678 5676 5673 5671 5668 5666 5663 5660 5657 5655 5652 5649 5647 5644 5641
5694 5694 5695 5695 5695 5695 5695 5694 5694 5693 5693 5693 5692 5692 5691 5690 5690 5689 5687 5686 5685 5684 5683 5681 5680 5678 5676 5675 5673 5671 5668 5666 5664 5661 5659 5656 5654 5651 5649 5646 5643 5641 5638 5635
5688 5689 5689 5689 5689 5689 5688 5688 5687 5687 5687 5686 5686 5685 5684 5684 5683 5682 5681 5679 5678 5677 5675 5674 5673 5671 5669 5668 5665 5663 5661 5659 5657 5654 5652 5649 5647 5644 5641 5639 5636 5634 5631 5628
5683 5683 5683 5683 5682 5682 5682 5681 5681 5681 5680 5680 5679 5678 5678 5677 5676 5675 5674 5673 5672 5671 5669 5668 5666 5665 5663 5661 5659 5656 5654 5652 5649 5647 5644 5642 5639 5637 5634 5632 5629 5626 5624 5621
5678 5677 5677 5677 5677 5676 5676 5675 5675 5674 5674 5673 5673 5672 5671 5671 5670 5669 5668 5667 5665 5664 5663 5661 5660 5658 5656 5654 5652 5650 5647 5645 5642 5639 5637 5634 5632 5629 5627 5624 5622 5619 5617 5615
Wind_Speed
24 23 24 25 24 25 25 25 24 24 24 23 25 23 23 22 22 22 22 22 22 22 22 22 22 22 23 24 24 24 24 23 24 25 26 27 27 27 28 29 29 30 30 30
25 24 25 25 25 26 26 25 25 26 25 24 25 23 23 23 23 22 22 22 22 23 24 23 23 24 25 25 25 25 26 25 26 28 28 29 30 30 30 31 31 31 32 32
25 24 25 25 25 25 25 25 25 25 25 25 24 24 24 24 24 23 23 23 23 23 24 24 25 25 26 27 27 27 28 27 28 29 30 30 31 32 32 32 32 32 33 33
26 26 26 25 24 24 25 25 25 26 26 25 25 25 25 26 25 25 24 24 24 25 25 26 26 26 27 28 29 29 30 29 30 31 31 31 32 33 33 33 34 33 33 34
26 26 26 26 25 24 25 26 25 26 26 26 26 26 26 26 26 25 25 25 25 26 27 27 28 29 29 29 30 30 30 31 31 32 33 32 33 33 34 34 34 35 34 34
28 27 26 27 26 25 26 26 25 25 26 26 26 25 26 25 25 26 25 26 26 27 28 29 30 30 31 31 31 32 32 32 33 33 34 34 34 34 35 35 35 35 34 34
30 29 28 29 27 26 26 26 25 26 26 27 27 27 27 27 27 27 28 27 28 28 30 31 31 32 32 32 33 33 33 33 33 34 34 35 35 35 36 36 35 35 34 34
30 29 29 29 28 28 28 27 27 27 28 27 27 28 28 29 28 28 28 28 29 30 31 32 33 33 33 33 33 34 33 33 33 34 34 35 36 35 35 35 35 35 35 34
30 30 31 30 28 28 28 28 28 28 28 28 28 28 28 28 29 29 29 29 30 30 31 32 32 33 33 33 33 33 34 34 34 34 35 35 36 36 35 36 36 35 34 33
30 31 31 30 29 29 29 29 29 29 28 28 29 28 28 28 29 29 30 31 31 31 32 32 33 33 33 34 34 34 34 35 34 35 35 35 36 35 35 35 34 34 34 33
31 31 31 30 30 30 30 30 29 29 29 29 29 29 29 28 29 29 30 31 31 32 33 33 32 32 33 33 34 34 34 34 35 35 35 35 34 33 33 33 34 34 33 33
30 30 30 30 30 30 30 30 29 29 29 29 29 29 29 29 29 29 30 31 31 32 32 31 32 33 33 33 33 33 34 34 34 34 34 34 33 33 33 33 33 33 33 34
29 29 29 29 30 30 30 30 30 29 29 29 29 29 29 30 30 30 30 30 31 31 32 32 32 32 32 32 32 32 33 33 33 33 33 33 33 33 32 33 33 33 33 33
29 29 29 29 29 29 29 29 29 29 29 29 29 29 30 30 31 31 30 30 31 31 31 31 31 31 31 31 31 31 31 31 32 32 32 31 31 31 32 32 32 32 32 31
29 29 28 28 28 28 28 29 29 28 29 29 29 30 30 30 30 30 31 31 31 31 31 31 30 30 30 30 30 30 30 30 30 29 30 30 30 30 30 31 31 30 30 29
28 28 28 27 27 28 28 28 28 28 28 29 30 29 29 29 30 30 30 31 31 31 31 30 30 30 29 29 28 29 29 28 28 28 29 29 29 30 30 30 29 28 28 27
27 27 27 26 26 27 27 27 28 28 29 29 30 30 30 29 28 28 29 29 30 30 30 29 29 29 29 28 28 28 28 27 27 27 27 28 29 29 29 29 28 27 26 26
26 26 26 26 26 26 26 27 28 28 29 29 29 29 29 29 28 28 29 29 29 29 29 28 28 28 28 27 26 26 27 27 26 27 27 27 28 28 28 28 28 27 27 27
25 25 25 25 26 26 26 26 27 27 28 28 28 29 29 28 28 28 28 28 28 28 28 28 27 27 27 27 26 26 27 26 25 25 25 25 25 25 25 25 25 24 24 24
24 24 25 25 25 26 26 26 26 27 27 27 27 26 27 27 28 28 27 27 27 27 26 26 26 26 25 25 25 26 26 25 24 24 24 24 23 23 23 23 22 22 22 22
23 23 24 24 25 25 25 25 26 26 26 25 24 24 25 26 25 25 25 25 25 25 25 25 25 25 25 24 24 24 24 24 23 23 23 22 22 22 21 21 21 21 21 20
21 22 22 22 23 23 24 24 25 25 24 23 23 23 24 23 22 22 23 24 24 24 23 23 23 23 23 23 23 23 23 22 22 22 22 22 22 22 21 21 21 21 20 20
20 20 21 21 21 21 21 22 22 23 22 22 22 22 22 21 21 22 22 22 22 22 22 22 22 22 22 22 23 23 23 22 21 21 22 22 22 21 21 21 21 21 21 21
19 19 19 19 20 19 19 20 20 20 20 21 21 21 21 21 21 22 22 22 22 22 21 21 21 21 22 22 23 23 22 22 21 22 22 23 22 22 22 22 22 23 23 22
18 18 19 19 19 20 20 20 20 20 20 20 20 20 20 20 21 21 21 21 21 21 21 21 22 22 22 22 22 22 23 22 22 23 23 23 23 23 23 23 23 23 23 23
17 18 18 19 19 19 19 19 19 20 20 20 20 20 20 19 19 19 20 20 20 20 20 21 21 21 21 22 22 23 23 23 23 23 23 24 23 23 23 23 23 23 23 22
17 17 18 18 17 17 17 18 18 19 19 19 19 19 19 19 19 19 19 19 19 19 19 19 20 20 21 21 22 22 23 23 23 23 23 22 22 21 22 22 22 22 21 21
Wind_Direction
251 253 255 259 261 261 261 262 264 268 271 273 274 278 280 280 282 283 283 282 282 279 279 279 281 284 288 290 290 289 288 290 291 289 289 290 292 294 296 296 296 296 296 296
252 254 257 259 261 262 264 266 267 269 271 272 276 278 278 278 279 279 279 280 280 281 280 278 279 281 284 286 287 287 287 288 290 289 289 290 292 294 294 295 295 295 295 295
254 256 258 260 261 264 266 267 267 270 272 276 275 277 277 277 276 275 277 278 279 280 282 281 281 281 283 286 288 288 287 288 289 288 288 288 290 292 293 293 293 293 294 294
254 257 259 260 263 265 266 267 269 270 273 274 274 276 276 276 275 274 276 277 279 280 282 282 283 284 285 287 289 289 290 290 290 289 288 289 289 289 290 291 292 293 293 294
254 258 263 263 264 266 267 269 270 272 273 273 274 274 273 273 273 273 274 275 277 280 282 283 284 286 287 288 289 289 289 290 290 291 291 292 292 291 292 292 292 292 293 293
255 256 260 266 266 267 268 269 270 272 273 274 273 271 272 273 271 271 272 273 275 277 280 282 285 286 287 289 288 287 288 289 289 290 292 293 293 293 293 292 292 292 292 292
256 258 260 264 266 266 267 269 271 272 274 274 272 271 271 272 272 273 274 275 277 279 281 283 285 286 286 287 288 288 289 289 290 291 291 292 293 294 294 294 294 292 291 291
256 257 259 262 264 263 265 268 270 272 273 275 275 275 274 272 272 274 275 277 280 281 282 283 284 286 287 287 287 288 288 289 290 291 291 291 293 294 293 293 293 293 291 290
256 257 259 261 263 265 266 267 269 272 273 274 276 277 277 274 273 276 278 279 281 282 283 285 287 288 289 289 288 288 287 288 288 289 290 291 291 291 292 292 292 292 291 291
257 258 260 262 264 265 266 268 271 273 273 274 275 276 276 276 275 276 277 279 281 282 284 287 288 288 289 289 288 288 288 288 288 289 290 291 291 291 292 293 292 290 291 291
258 259 260 261 262 265 267 268 269 271 272 274 275 276 276 276 276 277 278 279 281 283 285 287 287 288 289 289 288 287 286 287 288 289 290 290 292 292 293 293 292 291 292 292
257 258 259 261 263 265 266 267 268 270 271 272 274 275 275 275 276 277 278 280 281 284 285 286 287 288 288 289 287 287 287 287 290 290 290 291 291 293 294 295 294 293 293 294
257 258 260 261 263 264 265 266 268 270 270 271 273 274 275 275 276 276 277 279 281 282 285 286 287 288 289 290 289 288 288 289 289 290 291 292 293 294 295 296 297 297 295 294
257 258 259 261 262 264 265 267 268 269 271 272 273 273 275 275 276 277 277 279 280 281 283 286 287 288 289 290 290 290 290 289 289 290 292 293 295 296 297 298 298 298 296 295
258 259 260 261 262 264 266 268 269 270 272 273 273 273 274 275 277 278 280 281 281 282 284 286 287 288 290 291 290 290 291 291 291 292 294 295 296 297 299 300 299 299 298 297
258 259 261 263 263 265 267 268 269 270 272 273 273 274 275 276 277 279 281 282 282 283 286 287 288 290 292 293 292 292 291 291 292 294 295 296 298 298 299 300 300 299 300 299
258 259 261 263 265 266 266 267 269 271 273 274 275 275 276 278 279 281 283 283 284 286 287 288 289 290 291 293 293 294 293 292 295 297 297 297 298 299 299 300 300 300 300 300
260 261 261 262 264 266 267 269 271 272 273 274 274 274 275 277 279 280 282 284 285 286 287 288 289 290 291 292 293 293 293 295 296 298 298 298 298 298 299 301 301 301 301 302
259 260 261 263 265 267 269 271 271 272 273 274 274 274 274 276 278 280 280 283 284 285 285 286 287 288 288 289 291 293 296 297 298 301 302 302 301 302 302 303 303 303 304 305
259 260 262 264 265 267 270 271 272 273 273 275 275 276 277 278 279 279 280 282 284 284 284 285 286 286 288 292 293 295 296 298 299 303 304 304 304 305 305 304 306 306 306 306
260 261 263 265 266 268 270 273 273 273 274 275 276 277 278 278 280 280 280 282 284 285 285 286 285 286 287 291 294 296 296 298 299 302 303 305 304 305 306 307 307 308 307 307
261 262 264 265 267 269 271 272 272 272 273 273 274 277 277 279 281 280 281 283 284 284 284 285 285 287 290 292 294 296 297 299 301 302 302 303 304 304 306 307 307 307 307 306
261 263 264 265 267 269 271 273 273 274 274 274 274 277 279 281 280 279 281 283 284 285 285 286 288 290 291 293 294 296 298 298 300 303 304 305 305 305 306 306 306 306 306 306
264 265 266 267 268 270 273 274 275 276 276 276 277 278 277 278 279 279 280 281 284 285 286 288 290 291 291 293 295 295 296 297 299 301 302 302 303 304 305 305 305 305 305 304
264 265 267 269 271 273 274 273 273 275 277 278 278 278 278 278 279 279 281 282 283 285 287 290 291 294 295 296 295 296 298 298 299 300 300 300 301 302 302 302 302 303 303 303
267 268 269 272 273 273 274 274 274 275 277 278 278 279 280 280 281 281 282 283 283 285 288 290 292 294 296 297 298 300 301 300 300 301 300 300 300 299 299 299 300 301 302 303
268 269 273 276 276 275 275 275 275 276 278 278 278 279 280 281 283 284 284 284 285 288 289 292 294 295 296 297 298 300 301 301 301 302 302 301 300 300 300 301 301 301 302 302